User: anonymous   Login
Location: Axtheid
(49.6213°N, 11.8205°E)
Time: 20:35:51
(UTC+00:00)
Language:

Cosmos 2263 Rocket - Orbit

View from above orbital plane
View from above orbital plane
View from above satellite
View from above satellite

Ground track
Ground track

The orbit data is extracted from the following two-line orbital elements,

1 22803U 93059B   21127.17955218 -.00000100  00000-0 -26153-4 0  9996
2 22803  70.9880 137.0371 0016490  15.3220 344.8400 14.16835741429417
Epoch (UTC): 07 May 2021 04:18:33
Eccentricity: 0.0016490
inclination: 70.9880°
perigee height: 824 km
apogee height: 848 km
right ascension of ascending node: 137.0371°
argument of perigee: 15.3220°
revolutions per day: 14.16835741
mean anomaly at epoch: 344.8400°
orbit number at epoch: 42941

The dashed part of the orbit path shows where the satellite is in the earth's shadow,  

DLR